Zurück zum Katalog

ARIANE 44L+ DEB

AktivGTO
NORAD 23239·DEBRIS·🇫🇷 France

Gestartet Apr 15, 1992 von Guiana Space Centre

Loading…

TLE

AlterndSource: Space-Track

Epoche: Sep 14, 2026, 18:49 UTC

1 23239U 92021J   26257.78463432 -.00000063  00000-0  00000-0 0  9992
2 23239   3.8174  58.1366 6983353   9.3004 207.6870  2.23772266271025

Verfolge ARIANE 44L+ DEB in Echtzeit mit AllMySat

Download on the App Store